Regional Weather Roundup
Issued by NWS

Home | Current Version | Previous Version | Text Only | Print | Product List | Glossary Off
Versions: 1 2 3 4 5 6 7 8 9 10 11 12 13 14 15 16 17 18 19 20 21 22 23 24 25 26 27 28 29 30 31 32 33 34 35 36 37 38 39 40 41 42 43 44 45 46 47 48 49 50

000
ASUS43 KMKX 221000
RWRWI

WISCONSIN REGIONAL WEATHER ROUNDUP
NATIONAL WEATHER SERVICE MILWAUKEE/SULLIVAN WI
400 AM CST WED FEB 22 2017

NOTE: "FAIR" INDICATES FEW OR NO CLOUDS BELOW 12,000 FEET WITH NO
SIGNIFICANT WEATHER AND/OR OBSTRUCTIONS TO VISIBILITY.

WIZ001-002-006>008-014>016-023>028-221100-
NORTHWEST WISCONSIN

CITY           SKY/WX    TMP DP  RH WIND       PRES   REMARKS
SUPERIOR ARPT  CLOUDY    29  29 100 CALM      29.65R FOG
ASHLAND        CLOUDY    36  35  96 SW5       29.64S WCI  32
HAYWARD        CLOUDY    32  30  92 N5        29.64S WCI  27
SIREN          FOG       32  32  99 CALM      29.64R VSB 1/2
CUMBERLAND     FOG       32  32 100 CALM      29.64S VSB 1
RICE LAKE      CLOUDY    34  34  99 CALM      29.64F
CHETEK         CLOUDY    35  35  99 CALM      29.63F
LADYSMITH      CLOUDY    38  36  90 CALM      29.66F
EAU CLAIRE     NOT AVBL
MENOMONIE      MOCLDY    36  34  92 N3        29.64S
NEW RICHMOND     N/A     37  37  99 CALM      29.64S FOG
OSCEOLA        NOT AVBL
$$

WIZ003>005-009-010-017-018-221100-
NORTH CENTRAL WISCONSIN

CITY           SKY/WX    TMP DP  RH WIND       PRES   REMARKS
MANITOWISH WTR MOCLDY    39  36  91 CALM      29.64S
ARBOR VITAE    CLOUDY    42  36  81 CALM        N/A
WOODRUFF       CLOUDY    42  36  81 CALM        N/A
RHINELANDER    CLOUDY    41  35  79 SW7       29.66F
EAGLE RIVER    CLEAR     38  31  74 CALM      29.65S
LAND O LAKES   MOCLDY    41  33  73 CALM      29.66S
PHILLIPS       CLOUDY    34  32  94 CALM      29.65S
TOMAHAWK       PTCLDY    34  31  90 CALM      29.67F
MEDFORD        PTCLDY    41  35  81 S5        29.65F
MERRILL        NOT AVBL
$$

WIZ029-030-035-036-043>047-221100-
CENTRAL WISCONSIN

CITY           SKY/WX    TMP DP  RH WIND       PRES   REMARKS
WAUSAU         PTCLDY    43  35  73 S6        29.66F
MOSINEE        PTCLDY    37  36  93 S7        29.68F WCI  32
MARSHFIELD     PTCLDY    39  34  82 SW6       29.66F WCI  35
STEVENS POINT  PTCLDY    32  31  95 CALM      29.70F
WAUPACA        CLEAR     42  35  75 CALM      29.71F
WAUTOMA        CLEAR     32  29  88 CALM      29.71F
WISC RAPIDS    PTCLDY    35  34  96 SW3       29.70F
CAMP DOUGLAS   NOT AVBL
$$

WIZ011>013-019>022-031-037>040-048>050-221100-
NORTHEAST WISCONSIN

CITY           SKY/WX    TMP DP  RH WIND       PRES   REMARKS
ANTIGO         PTCLDY    38  34  83 S3        29.68F
SHAWANO        MOCLDY    40  35  81 CALM      29.71S
OCONTO         CLOUDY    32  31  96 CALM      29.71S
STURGEON BAY   PTCLDY    37  35  92 SE3       29.72F
GREEN BAY      CLEAR     42  38  85 S3        29.72S
MANITOWOC      NOT AVBL
APPLETON       CLEAR     36  32  87 SE7       29.69F WCI  30
CLINTONVILLE   PTCLDY    34  32  93 CALM      29.69F
OSHKOSH        CLEAR     45  39  79 S12       29.70F
$$

WIZ032>034-041-042-053>061-221100-
SOUTHWEST WISCONSIN

CITY           SKY/WX    TMP DP  RH WIND       PRES   REMARKS
LA CROSSE      CLEAR     46  36  68 S8        29.68F
SPARTA         CLEAR     35  33  93 CALM      29.70S
VIROQUA        CLEAR     46  37  71 S12       29.71S
BOSCOBEL       CLEAR     34  31  88 CALM      29.73F
PRAIRIE DU CHI CLEAR     48  39  71 CALM      29.72F
PLATTEVILLE    CLEAR     45  45 100 S9        29.75F
$$

WIZ056-057-062-063-064-067-068-221100-
SOUTH CENTRAL WISCONSIN

CITY           SKY/WX    TMP DP  RH WIND       PRES   REMARKS
REEDSBURG      CLEAR     49  46  87 S7        29.72S
BARABOO/DELLS  CLEAR     52  45  78 SW10G20   29.72F
LONE ROCK      NOT AVBL
MINERAL POINT  CLEAR     45  45 100 S6        29.75S
MADISON        CLEAR     44  41  89 S6        29.74F
MIDDLETON      CLEAR     54  49  83 SW13      29.74F
WATERTOWN      CLEAR     39  39 100 S3        29.76F
MONROE         CLOUDY    46  46 100 SW16      29.76F FOG
JANESVILLE     FOG       50  50 100 SW5       29.77F VSB 1/4
$$

WIZ051-052-058>065-066-070>072-221100-
SOUTHEAST WISCONSIN

CITY           SKY/WX    TMP DP  RH WIND       PRES   REMARKS
MILWAUKEE      FOG       40  39  97 CALM      29.78S VSB 1/4
WAUKESHA       CLEAR     45  45 100 S3        29.78F FOG
MILWAUKEE/TIMM CLEAR     46  43  87 SW5       29.78F FOG
RACINE         FOG       48  47  96 SW8       29.80S VSB 1/4
KENOSHA        FOG       49  48  97 SW6       29.79S VSB<1/4
FOND DU LAC    CLEAR     49  41  74 SW12      29.72F
SHEBOYGAN      CLEAR     38  35  89 S6        29.73F WCI  33
WEST BEND      CLEAR     48  46  93 SW7       29.76S
JUNEAU         CLEAR     43  40  91 S8        29.76F
$$

LSZ147-162-221100-
LAKE SUPERIOR

STATION/POSITION TIME  TEMP    WIND        PRES    WAVE
                       AIR SEA DIR/SP/G            HT/PER
                 (UTC) (F)     (DEG/KT/KT) (MB)    (FT/S)
DEVILS ISLAND    0900   44     210/  6/  6 1003.6F
PORT WING        0940   31      CALM  /  1 1004.4R
SAXON HARBOR     0940   35     200/  4/  5 1003.4R
$$

LMZ867-665-643>646-221100-
LAKE MICHIGAN

STATION/POSITION TIME  TEMP    WIND        PRES    WAVE
                       AIR SEA DIR/SP/G            HT/PER
                 (UTC) (F)     (DEG/KT/KT) (MB)    (FT/S)
CHAMBERS ISLAND  0940   46     180/  5/ 10 1005.8S
NORTHPORT PIER   0940   39     160/  4/  7 1006.1F
SISTER BAY       0905   42     140/  9/ 11   N/A
ALGOMA LAKESHORE 0910          210/  8/ 10   N/A
KEWAUNEE LAKESHO 0930   38      CALM  /  2 1006.4F
SHEBOYGAN LAKESH 0900   39     190/ 10/ 11 1007.6F
PORT WASHINGTON  0930   40     210/  4/  5 1008.8F
MILWAUKEE LAKESH 0930   42     170/  9/  9   N/A
KENOSHA   LAKESH 0900   48     200/  5/  6 1009.1
$$

TC  - TEMPERATURE IN CELSIUS
VSB - VISIBILITY IN STATUTE MILES
WCI - WIND CHILL INDEX
HX  - HEAT INDEX





USA.gov is the U.S. government's official web portal to all federal, state and local government web resources and services.